Weather Roundup
Issued by NWS Chicago, IL

Home | Current Version | Previous Version | Graphics & Text | Print | Product List | Glossary On
Versions: 1 2 3 4 5 6 7 8 9 10 11 12 13 14 15 16 17 18 19 20 21 22 23 24 25 26 27 28 29 30 31 32 33 34 35 36 37 38 39 40 41 42 43 44 45 46 47 48 49 50
000
NZUS59 KLOT 021808
HRRLOT

CHICAGO AREA WEATHER ROUNDUP
NATIONAL WEATHER SERVICE CHICAGO/ROMEOVILLE IL
100 PM CDT WED SEP 02 2015

NOTE: "FAIR" INDICATES FEW OR NO CLOUDS BELOW 12,000 FEET WITH NO
SIGNIFICANT WEATHER AND/OR OBSTRUCTIONS TO VISIBILITY.

* THESE STATIONS ARE NOT UNDER NWS QUALITY CONTROL. THEY ALSO MAY NOT
  REPORT WEATHER SUCH AS PRECIPITATION OR FOG.

ILZ005-006-012>014-019>023-021900-
NORTHEAST ILLINOIS

CITY           SKY/WX    TMP DP  RH WIND       PRES   REMARKS
OHARE          MOSUNNY   87  69  54 SW13      30.01F HX  91
6HR MIN TEMP:  72; 6HR MAX TEMP:  88;

MIDWAY         MOSUNNY   90  70  51 W12G18    30.01F HX  95
6HR MIN TEMP:  74; 6HR MAX TEMP:  90;

AURORA         MOSUNNY   88  71  57 SW13G18   30.03F HX  94
6HR MIN TEMP:  66; 6HR MAX TEMP:  88;

LANSING*       PTSUNNY   88  71  55 S8        30.03F HX  93
JOLIET*        MOSUNNY   89  72  55 SW10      30.02F HX  96
WAUKEGAN       SUNNY     87  69  54 SW8       30.00F HX  91
6HR MIN TEMP:  72; 6HR MAX TEMP:  87;

DUPAGE AIRPORT MOSUNNY   87  70  56 SW10      30.02F HX  92
6HR MIN TEMP:  70; 6HR MAX TEMP:  87;

WHEELING       SUNNY     90  66  45 S12       30.02F HX  92
6HR MIN TEMP:  73; 6HR MAX TEMP:  90;

KANKAKEE*      MOSUNNY   90  73  57 S9        30.04F HX  97
MORRIS*        SUNNY     87  72  59 SW10      30.02F HX  93
LEWIS AIRPORT* MOSUNNY   87  69  55 SW9       30.03F HX  92
NORTHERLY IS     N/A     88  64  44 W6          N/A  HX  89
$$

WIZ051-052-058>065-066-070>072-021900-
SOUTHEAST WISCONSIN

CITY           SKY/WX    TMP DP  RH WIND       PRES   REMARKS
MILWAUKEE      PTSUNNY   88  68  51 SW8       30.00S HX  91
6HR MIN TEMP:  74; 6HR MAX TEMP:  88;

KENOSHA*       SUNNY     89  70  53 SW13      30.01F HX  94
RACINE*        SUNNY     89  69  51 SW12      30.02S HX  93
BURLINGTON     SUNNY     83  68  61 SW8       30.02S HX  86
WEST BEND      SUNNY     86  64  48 SW10      30.00S HX  87
$$

INZ001>003-010>013-019-020-021900-
NORTHWEST INDIANA

CITY           SKY/WX    TMP DP  RH WIND       PRES   REMARKS
GARY*          PTSUNNY   90  66  45 S8        30.03F HX  92
MICHIGAN CITY* NOT AVBL
RENSSELAER*    NOT AVBL
VALPARAISO     SUNNY     87  71  58 SW6       30.05F HX  93
$$

LMZ740>746-021900-
SOUTHERN LAKE MICHIGAN

STATION/POSITION TIME  SKY/WX   TEMP WIND        PRES    VSBY
                                AIR  DIR/SP/G
                 (UTC)          (F)  (DEG/KT/KT) (MB)    (MI)
HARRISON CRIB    1700            80  160/  8/ 10   N/A
BURNHAM HARBOR   1800            88  210/  2/  9   N/A
CALUMET HARBOR   1700            85  200/  5/  9   N/A
BURNS HARBOR     1700            80  270/  5/  5 1017.6F
MICHIGAN CITY    1700            81  220/  5/  5   N/A
$$

ABBREVIATIONS USED IN REMARKS
   TC - TEMPERATURE IN CELSIUS
  WCI - WIND CHILL INDEX
   HX - HEAT INDEX
  VSB - VISIBILITY
$$


USA.gov is the U.S. government's official web portal to all federal, state and local government web resources and services.